EHI
0 0 0 0 0 0 0 0 0 0 0 0 0 0 0 0 0 0 0 0 0 0 0 0 0 0 0 0 0 0 0 0 0 0 0 0 0 0 0 0 0 0 0
0 0 0 0 0 0 0 0 0 0 0 0 0 0 0 0 0 0 0 0 0 0 0 0 0 0 0 0 0 0 0 0 0 0 0 0 0 0 0 0 0 0 0
0 0 0 0 0 0 0 0 0 0 0 0 0 0 0 0 0 0 0 0 0 0 0 0 0 0 0 0 0 0 0 0 0 0 0 0 0 0 0 0 0 0 0
0 0 0 0 0 0 0 0 0 0 0 0 0 0 0 0 0 0 0 0 0 0 0 0 0 0 0 0 0 0 0 0 0 0 0 0 0 0 0 0 0 0 0
0 0 0 0 0 0 0 0 0 0 0 0 0 0 0 0 0 0 0 0 0 0 0 0 0 0 0 0 0 0 0 0 0 0 0 0 0 0 0 0 0 0 0
0 0 0 0 0 0 0 0 0 0 0 0 0 0 0 0 0 0 0 0 0 0 0 0 0 0 0 0 0 0 0 0 0 0 0 0 0 0 0 0 0 0 0
0 0 0 0 0 0 0 0 0 0 0 0 0 0 0 0 0 0 0 0 0 0 0 0 0 0 0 0 0 0 0 0 0 0 0 0 0 0 0 0 0 0 0
0 0 0 0 0 0 0 0 0 0 0 0 0 0 0 0 0 0 0 0 0 0 0 0 0 0 0 0 0 0 0 0 0 0 0 0 0 0 0 0 0 0 0
0 0 0 0 0 0 0 0 0 0 0 0 0 0 0 0 0 0 0 0 0 0 0 0 0 0 0 0 0 0 0 0 0 0 0 0 0 0 0 0 0 0 0
0 0 0 0 0 0 0 0 0 0 0 0 0 0 0 0 0 0 0 0 0 0 0 0 0 0 0 0 0 0 0 0 0 0 0 0 0 0 0 0 0 0 0
0 0 0 0 0 0 0 0 0 0 0 0 0 0 0 0 0 0 0 0 0 0 0 0 0 0 0 0 0 0 0 0 0 0 0 0 0 0 0 0 0 0 0
0 0 0 0 0 0 0 0 0 0 0 0 0 0 0 0 0 0 0 0 0 0 0 0 0 0 0 0 0 0 0 0 0 0 0 0 0 0 0 0 0 0 0
0 0 0 0 0 0 0 0 0 0 0 0 0 0 0 0 0 0 0 0 0 0 0 0 0 0 0 0 0 0 0 0 0 0 0 0 0 0 0 0 0 0 0
0 0 0 0 0 0 0 0 0 0 0 0 0 0 0 0 0 0 0 0 0 0 0 0 0 0 0 0 0 0 0 0 0 0 0 0 0 0 0 0 0 0 0
0 0 0 0 0 0 0 0 0 0 0 0 0 0 0 0 0 0 0 0 0 0 0 0 0 0 0 0 0 0 0 0 0 0 0 0 0 0 0 0 0 0 0
0 0 0 0 0 0 0 0 0 0 0 0 0 0 0 0 0 0 0 0 0 0 0 0 0 0 0 0 0 0 0 0 0 0 0 0 0 0 0 0 0 0 0
0 0 0 0 0 0 0 0 0 0 0 0 0 0 0 0 0 0 0 0 0 0 0 0 0 0 0 0 0 0 0 0 0 0 0 0 0 0 0 0 0 0 0
0 0 0 0 0 0 0 0 0 0 0 0 0 0 0 0 0 0 0 0 0 0 0 0 0 0 0 0 0 0 0 0 0 0 0 0 0 0 0 0 0 0 0
0 0 0 0 0 0 0 0 0 0 0 0 0 0 0 0 0 0 0 0 0 0 0 0 0 0 0 0 0 0 0 0 0 0 0 0 0 0 0 0 0 0 0
0 0 0 0 0 0 0 0 0 0 0 0 0 0 0 0 0 0 0 0 0 0 0 0 0 0 0 0 0 0 0 0 0 0 0 0 0 0 0 0 0 0 0
0 0 0 0 0 0 0 0 0 0 0 0 0 0 0 0 0 0 0 0 0 0 0 0 0 0 0 0 0 0 0 0 0 0 0 0 0 0 0 0 0 0 0
0 0 0 0 0 0 0 0 0 0 0 0 0 0 0 0 0 0 0 0 0 0 0 0 0 0 0 0 0 0 0 0 0 0 0 0 0 0 0 0 0 0 0
0 0 0 0 0 0 0 0 0 0 0 0 0 0 0 0 0 0 0 0 0 0 0 0 0 0 0 0 0 0 0 0 0 0 0 0 0 0 0 0 0 0 0
0 0 0 0 0 0 0 0 0 0 0 0 0 0 0 0 0 0 0 0 0 0 0 0 0 0 0 0 0 0 0 0 0 0 0 0 0 0 0 0 0 0 0
0 0 0 0 0 0 0 0 0 0 0 0 0 0 0 0 0 0 0 0 0 0 0 0 0 0 0 0 0 0 0 0 0 0 0 0 0 0 0 0 0 0 0
0 0 0 0 0 0 0 0 0 0 0 0 0 0 0 0 0 0 0 0 0 0 0 0 0 0 0 0 0 0 0 0 0 0 0 0 0 0 0 0 0 0 0
Wind_Speed
6 5 5 4 4 4 4 4 4 3 3 3 3 4 3 4 4 4 3 4 5 4 4 5 4 3 3 3 3 4 3 3 3 1 2 3 4 5 6 5 5 5 5
6 6 6 5 5 5 4 4 4 4 4 4 4 4 4 3 3 4 4 4 5 5 4 4 4 4 4 4 4 4 3 2 3 1 2 3 4 4 4 5 5 5 4
7 7 6 6 6 5 4 4 4 5 4 4 4 4 3 3 4 4 4 4 4 4 3 4 3 4 4 3 4 4 3 3 2 2 2 2 2 3 4 4 5 4 5
7 7 7 6 6 6 5 5 5 5 5 5 4 4 4 3 4 4 4 4 4 3 3 3 3 4 3 3 3 3 3 3 3 2 2 2 2 3 3 3 4 4 4
8 8 7 6 6 5 5 5 5 5 5 5 4 4 3 3 3 4 4 5 4 4 3 3 2 4 5 3 3 2 3 3 2 2 2 2 3 3 3 2 3 4 4
9 8 7 6 6 6 6 5 5 5 4 4 4 4 3 2 4 6 5 4 4 3 3 2 2 3 5 6 6 5 4 3 2 1 1 1 2 2 2 2 2 3 4
9 8 8 8 7 6 6 6 6 5 4 4 4 4 3 2 5 7 7 5 4 3 2 1 1 2 3 3 4 5 4 4 2 3 1 2 2 2 1 2 2 2 3
8 8 8 8 8 6 6 6 5 4 4 4 3 4 3 2 5 7 8 5 3 2 2 2 2 1 1 2 2 3 2 2 1 0 2 3 3 2 2 2 2 2 3
10 10 9 9 9 8 7 6 4 4 4 3 4 4 4 2 4 6 7 3 3 1 0 1 2 2 2 3 3 1 2 3 3 2 2 2 4 5 3 1 2 2 3
11 10 9 9 10 9 8 6 4 4 4 4 3 4 4 3 4 6 7 3 2 1 0 0 2 2 2 2 2 2 1 3 3 4 4 5 4 4 5 1 1 1 2
9 9 8 9 9 8 7 5 5 5 5 4 3 2 3 4 5 6 7 3 3 2 2 1 2 2 1 1 2 2 3 3 2 2 2 3 3 3 3 2 1 2 2
9 9 9 8 8 7 7 6 5 6 5 4 3 2 2 3 4 5 7 6 5 4 3 2 3 3 2 2 2 3 4 2 0 1 2 2 3 3 3 3 3 3 4
10 10 9 8 7 7 8 7 5 5 5 4 4 4 3 2 3 6 7 7 6 4 3 5 5 4 3 2 4 4 3 1 0 1 2 3 3 3 3 3 3 3 4
11 10 9 9 7 6 6 6 6 6 6 5 5 5 4 3 3 3 3 4 5 4 3 3 4 4 3 3 3 3 2 2 2 3 3 3 3 2 2 2 2 3 3
9 8 8 8 8 7 6 6 8 8 9 8 7 6 6 6 8 9 6 4 4 4 2 1 1 1 2 2 2 2 2 2 2 3 3 3 3 3 3 2 2 2 2
8 8 7 6 6 6 6 4 6 6 9 11 9 8 7 8 8 9 10 9 9 7 4 2 3 3 4 4 4 3 3 3 4 4 3 4 4 4 4 3 2 3 4
9 9 7 7 7 7 6 6 5 3 5 8 10 11 10 9 9 10 10 9 9 8 4 4 5 5 5 5 5 4 4 5 4 4 4 4 4 4 4 4 4 4 4
8 8 8 7 7 7 7 7 6 6 5 4 6 10 11 11 10 10 9 6 4 4 4 5 6 5 5 5 5 5 5 4 4 4 4 5 4 4 4 5 4 5 5
7 5 6 5 5 6 6 5 5 6 5 4 3 4 8 9 9 9 7 5 5 6 6 6 6 6 5 6 6 5 5 5 5 4 4 5 5 5 5 5 5 7 6
5 7 7 5 5 5 5 5 5 6 6 5 5 5 4 4 4 5 5 5 6 6 6 6 6 6 6 5 5 5 5 5 5 5 5 5 5 5 6 7 6 6 6
4 5 7 6 5 6 6 6 6 6 6 6 6 7 8 6 7 7 6 6 7 7 7 6 6 6 6 5 5 6 7 6 6 5 5 5 5 5 5 5 6 6 6
3 4 5 5 5 5 5 6 5 6 6 6 5 5 9 5 5 6 6 7 7 7 6 6 6 6 6 6 6 6 6 6 6 5 5 5 5 5 5 5 6 6 6
3 4 4 4 5 6 5 4 5 5 5 5 5 4 5 6 6 6 6 6 5 5 5 5 5 5 5 5 5 6 6 6 6 6 5 5 5 5 5 6 7 7 7
3 4 4 4 4 4 5 5 5 5 5 5 5 5 6 6 6 6 6 5 5 5 5 5 6 8 9 6 5 5 6 6 6 5 7 6 6 6 5 6 7 8 8
2 3 4 4 4 4 4 5 5 5 5 5 5 5 5 5 6 6 5 5 6 6 6 6 5 7 9 10 8 7 9 10 9 6 5 5 7 7 6 7 7 7 8
2 3 3 3 4 4 4 5 5 5 5 5 5 5 5 5 5 5 5 5 5 5 6 6 7 8 8 8 9 10 11 11 11 10 6 5 6 6 6 6 8 8 9
Wind_Direction
164 162 155 154 146 136 133 137 133 122 120 117 110 98 88 83 85 86 80 79 73 60 57 67 57 49 55 44 51 61 65 95 112 330 328 340 7 10 2 5 11 12 8
164 158 159 154 142 137 137 137 129 124 122 119 110 101 95 90 90 94 91 83 84 78 69 67 53 61 52 44 54 59 62 79 114 76 344 353 2 357 359 5 8 12 7
158 156 155 155 151 151 149 141 131 128 121 112 108 107 102 99 96 98 102 97 94 94 91 84 71 73 63 54 60 59 53 59 73 86 3 343 344 353 359 357 1 354 2
159 158 161 167 165 160 152 144 139 134 127 120 114 114 113 107 104 104 105 101 93 85 83 87 86 90 99 88 75 70 71 61 54 60 25 351 341 336 6 356 349 345 345
162 165 173 168 157 150 147 144 137 133 134 129 118 109 110 113 121 120 113 109 102 84 69 71 78 89 95 103 101 96 84 74 60 53 22 0 344 350 347 332 340 326 324
169 173 167 157 153 154 152 143 134 128 128 125 125 126 118 118 127 128 123 114 114 109 93 64 54 65 76 82 90 91 98 103 105 91 27 344 309 306 310 331 339 353 330
172 170 166 163 160 161 155 144 142 142 136 130 132 127 128 145 137 129 124 119 117 122 126 115 81 74 79 83 66 57 48 55 103 154 162 248 267 275 307 329 327 317 282
171 171 170 165 162 158 154 155 154 146 146 146 148 147 142 157 139 128 121 108 109 116 138 150 142 137 138 119 88 50 21 2 346 133 190 233 243 254 231 241 268 294 291
175 176 174 167 163 162 165 167 160 149 150 153 155 153 150 168 155 141 128 117 111 112 134 152 151 161 185 135 109 74 355 328 321 334 318 316 321 322 323 353 345 354 322
183 179 173 169 168 171 173 167 158 153 158 154 155 163 165 178 180 162 145 133 132 141 108 249 189 189 205 163 145 151 285 293 313 331 340 337 332 328 333 302 206 269 292
174 165 166 169 171 170 163 158 153 151 148 154 160 174 177 184 188 178 167 155 166 170 187 232 254 238 218 199 183 196 242 268 290 308 318 320 325 324 316 301 229 197 224
158 162 167 168 171 164 156 158 157 154 156 165 167 189 216 207 198 198 190 187 179 174 202 220 240 253 254 256 245 259 274 296 300 314 313 307 308 304 297 295 285 257 233
161 168 170 169 170 162 164 166 162 165 170 182 183 198 221 224 222 212 202 197 194 193 217 225 233 246 258 272 279 282 289 271 241 265 270 269 264 268 282 296 299 292 286
168 172 170 171 172 171 173 175 176 181 185 191 197 205 214 219 222 218 214 215 213 217 231 249 252 251 249 262 281 289 264 228 219 232 250 261 271 278 275 272 280 292 301
168 171 173 177 178 181 186 191 192 200 195 192 202 199 198 217 224 210 201 210 210 213 198 213 249 261 265 271 272 266 258 256 247 242 247 260 267 267 269 267 260 270 273
168 175 179 178 179 181 184 201 223 213 212 211 207 200 214 221 218 211 214 219 218 206 180 205 226 232 238 245 251 259 256 250 247 244 245 247 254 258 266 267 257 260 273
178 181 181 181 182 184 185 190 206 239 233 221 216 210 212 214 213 212 213 217 216 195 197 221 228 232 237 238 238 239 245 247 242 240 245 248 250 254 258 265 265 267 271
181 184 183 187 188 189 194 197 196 197 208 232 232 224 220 219 217 215 211 197 216 209 215 226 233 236 236 237 238 240 245 250 246 244 246 248 247 248 255 260 261 261 269
182 183 185 186 188 192 192 193 197 204 209 216 221 232 225 222 222 221 202 199 213 222 225 232 234 235 237 238 239 240 241 243 244 240 243 245 245 245 252 256 257 262 265
190 188 179 181 185 189 191 194 200 206 211 214 219 221 203 189 210 220 215 217 221 227 228 231 235 236 237 237 238 239 243 245 245 243 242 244 244 242 249 254 255 260 263
188 191 186 184 192 196 197 202 205 207 214 220 226 220 200 203 214 218 220 222 225 229 230 232 235 235 236 236 238 242 243 245 243 242 243 244 244 246 248 251 256 259 265
189 191 193 197 197 199 201 204 204 209 216 222 231 222 210 212 219 223 226 229 230 230 229 227 231 232 229 228 231 236 242 247 247 243 244 244 243 245 249 253 259 262 265
193 196 199 203 203 204 204 205 206 210 217 222 220 217 213 218 223 226 230 232 232 233 232 227 231 238 238 233 228 225 231 237 239 237 238 243 244 247 248 252 258 265 269
199 202 206 209 208 207 208 212 213 215 217 221 221 221 220 220 223 227 229 231 230 233 231 229 232 237 240 239 235 229 230 235 236 236 233 239 246 251 252 256 260 264 269
212 211 212 213 212 214 217 219 220 221 222 225 227 229 229 228 231 234 233 232 232 235 237 235 236 239 241 240 237 236 238 240 241 239 235 234 244 249 253 258 263 269 270
232 224 220 217 216 218 218 222 226 227 228 230 229 228 227 229 233 235 235 234 235 239 241 240 241 241 242 240 240 241 244 245 244 246 242 235 241 250 253 260 265 269 273